Location: Bathurst
(33.4193°S, 149.5775°E)
Time: 23:23:39
(UTC+10:00)

Vanguard 3 - Pass Details

Date: 26 June 2021
Orbit: 508 x 3261 km, 33.4° (Epoch: 25 July)

Event Time Altitude Azimuth Distance (km) Brightness Sun altitude
Rises 17:52:51 0° 281° (W) 6,070 13.6 -10.3°
Reaches altitude 10° 17:56:20 10° 280° (W) 5,341 12.8 -11.0°
Maximum altitude 18:14:07 88° 8° (N) 3,239 10.1 -14.5°
Enters shadow 18:30:26 20° 94° (E) 5,191 10.6 -17.7°
